Total_Precipitation_Accumulation
1.36 1.35 1.38 1.34 1.36 1.39 1.49 1.67 1.86 1.69 1.25 0.92 0.83 0.79 0.80 0.81 0.83 0.77 0.66 0.71 0.70 0.70 0.73 0.74 0.74 0.78 0.82 0.89 0.98 1.05 1.12 1.20 1.29 1.39 1.48 1.57 1.73 1.94
1.21 1.24 1.23 1.22 1.27 1.33 1.40 1.48 1.64 1.74 1.46 0.98 0.80 0.76 0.79 0.78 0.80 0.73 0.65 0.72 0.69 0.68 0.69 0.70 0.69 0.68 0.72 0.77 0.83 0.88 0.92 0.97 1.07 1.19 1.34 1.48 1.59 1.72
1.08 1.10 1.07 1.05 1.11 1.15 1.21 1.28 1.36 1.48 1.44 1.02 0.82 0.77 0.78 0.75 0.71 0.66 0.60 0.59 0.56 0.62 0.62 0.65 0.66 0.66 0.68 0.72 0.77 0.82 0.85 0.88 0.96 1.08 1.21 1.32 1.43 1.48
0.98 1.03 1.02 0.99 1.01 1.05 1.10 1.11 1.12 1.15 1.23 1.07 0.80 0.71 0.67 0.63 0.62 0.61 0.57 0.53 0.49 0.55 0.58 0.61 0.68 0.70 0.67 0.66 0.68 0.74 0.80 0.84 0.88 0.92 1.00 1.09 1.18 1.32
0.89 0.97 1.01 1.04 1.05 1.05 1.06 1.06 1.05 1.07 1.14 1.14 0.89 0.71 0.65 0.61 0.62 0.60 0.57 0.55 0.50 0.52 0.56 0.56 0.58 0.63 0.65 0.67 0.67 0.67 0.70 0.76 0.83 0.85 0.89 0.95 1.03 1.15
0.89 0.93 0.97 1.00 0.98 0.95 0.97 0.96 0.99 1.03 1.06 1.11 1.03 0.85 0.72 0.62 0.65 0.66 0.65 0.59 0.57 0.56 0.62 0.61 0.61 0.60 0.62 0.63 0.62 0.61 0.62 0.69 0.81 0.93 1.01 1.04 1.02 1.05
1.00 0.96 0.95 0.99 0.97 0.93 0.93 0.93 0.96 1.02 1.09 1.16 1.09 0.93 0.79 0.70 0.63 0.59 0.65 0.64 0.63 0.58 0.60 0.59 0.61 0.63 0.65 0.70 0.73 0.73 0.74 0.81 0.93 1.06 1.15 1.20 1.19 1.17
0.99 0.91 0.88 0.91 0.90 0.92 0.93 0.92 0.98 1.09 1.18 1.22 1.14 0.98 0.77 0.70 0.70 0.79 0.88 0.97 0.89 0.62 0.66 0.75 0.80 0.86 0.82 0.81 0.90 0.94 0.96 1.00 1.06 1.12 1.18 1.23 1.23 1.21
0.89 0.84 0.79 0.77 0.80 0.75 0.80 0.86 0.90 1.00 1.08 1.09 1.03 0.82 0.72 0.69 0.84 0.99 1.01 1.04 0.90 0.72 0.84 0.97 0.91 0.88 0.82 0.84 0.99 0.95 0.92 0.94 0.98 1.04 1.07 1.11 1.13 1.13
0.77 0.73 0.72 0.70 0.71 0.76 0.84 0.90 0.83 0.78 0.78 0.76 0.74 0.70 0.70 0.75 0.94 1.15 1.23 1.24 1.06 0.89 0.87 0.96 0.82 0.75 0.71 0.75 0.86 0.86 0.83 0.86 0.92 0.97 1.00 1.04 1.06 1.04
0.71 0.70 0.70 0.67 0.75 0.88 0.94 0.95 0.81 0.68 0.69 0.75 0.80 0.78 0.81 0.85 0.91 1.15 1.38 1.49 1.28 0.90 0.76 0.80 0.76 0.74 0.73 0.71 0.76 0.85 0.83 0.83 0.89 0.92 0.94 0.96 1.01 1.04
0.71 0.70 0.77 0.74 0.83 0.95 0.90 0.90 0.82 0.67 0.64 0.66 0.68 0.68 0.64 0.66 0.81 0.95 1.34 1.73 1.47 1.08 0.73 0.80 0.84 0.95 1.13 0.79 0.70 0.76 0.79 0.80 0.82 0.85 0.89 0.93 0.96 0.97
0.77 0.71 0.70 0.85 0.93 0.97 0.87 0.72 0.73 0.80 0.73 0.65 0.65 0.65 0.64 0.64 0.68 0.74 0.97 1.59 1.87 1.42 0.84 1.14 1.30 1.06 1.21 0.93 0.73 0.75 0.80 0.87 0.90 0.90 0.93 0.95 0.95 1.01
0.72 0.66 0.68 0.84 0.84 0.79 0.73 0.74 0.81 0.76 0.63 0.66 0.68 0.66 0.66 0.67 0.69 0.73 0.78 0.94 1.25 1.42 1.11 1.35 1.71 1.31 1.35 1.10 0.80 0.78 0.84 0.99 1.14 1.11 1.06 1.12 1.08 1.06
0.69 0.73 0.77 0.77 0.71 0.66 0.69 0.72 0.70 0.66 0.70 0.77 0.75 0.69 0.67 0.72 0.76 0.82 0.83 0.84 0.90 0.95 0.98 1.06 1.35 1.36 1.46 1.37 1.03 0.88 1.00 1.08 1.24 1.42 1.38 1.25 1.11 1.07
0.71 0.73 0.69 0.66 0.64 0.65 0.69 0.67 0.61 0.66 0.82 0.88 0.80 0.72 0.72 0.80 0.84 0.91 1.04 1.05 1.10 1.04 0.96 0.93 1.01 1.27 1.34 1.07 1.13 1.10 1.13 1.40 1.47 1.65 1.62 1.38 1.16 1.02
0.69 0.60 0.56 0.57 0.59 0.59 0.59 0.62 0.64 0.67 0.75 0.78 0.83 0.84 0.83 0.91 0.99 1.09 1.23 1.30 1.32 1.15 0.99 0.85 0.80 0.87 1.01 1.06 1.10 1.02 1.11 1.37 1.58 1.70 1.69 1.55 1.33 1.14
0.64 0.56 0.54 0.54 0.55 0.57 0.57 0.59 0.63 0.68 0.77 0.88 0.93 0.96 1.01 1.08 1.16 1.22 1.34 1.44 1.36 1.13 0.96 0.82 0.77 0.81 0.82 0.83 0.93 1.08 1.17 1.38 1.53 1.54 1.42 1.43 1.42 1.22
0.52 0.51 0.53 0.53 0.53 0.55 0.60 0.65 0.67 0.69 0.83 1.00 1.10 1.15 1.22 1.26 1.31 1.36 1.37 1.34 1.19 1.03 0.91 0.81 0.86 1.11 1.12 0.83 0.69 0.92 1.34 1.47 1.38 1.36 1.23 1.18 1.29 1.17
0.47 0.47 0.47 0.50 0.54 0.59 0.64 0.72 0.78 0.79 0.90 1.03 1.12 1.18 1.28 1.39 1.43 1.37 1.28 1.20 1.10 0.92 0.76 0.67 0.75 1.11 1.50 1.33 1.07 0.97 1.10 1.35 1.43 1.36 1.13 1.01 1.07 1.06
0.43 0.44 0.44 0.48 0.55 0.61 0.67 0.76 0.86 0.97 1.05 1.19 1.23 1.25 1.31 1.46 1.43 1.27 1.13 1.00 0.92 0.82 0.71 0.59 0.59 0.79 1.07 1.21 1.12 0.99 1.06 1.17 1.30 1.48 1.35 1.23 1.10 1.01
0.45 0.45 0.45 0.48 0.56 0.62 0.69 0.79 0.91 0.99 1.08 1.17 1.22 1.25 1.30 1.39 1.34 1.11 0.93 0.87 0.79 0.73 0.68 0.58 0.54 0.61 0.85 1.15 1.07 0.91 0.92 0.94 0.93 0.92 1.09 1.36 1.67 1.73
0.51 0.53 0.52 0.54 0.58 0.66 0.74 0.81 0.92 1.01 1.10 1.21 1.24 1.20 1.17 1.11 0.95 0.88 0.82 0.80 0.79 0.73 0.69 0.65 0.60 0.62 0.72 0.84 0.94 0.88 0.81 0.78 0.74 0.84 1.05 1.05 1.11 1.30